Location: Marysville Observatory
(48.1092°N, 122.1645°W)
Time: 16:54:25
(UTC-07:00)

Amateur Radio Satellites - All Passes

Search period start: 24 April 2014 16:24
Search period end: 25 April 2014 16:24
Location: Marysville Observatory, 48.1092°N, 122.1645°W

Satellite Date Start Highest point End Downlink Frequencies (MHz)
Time Altitude Azimuth
AO-7 24 Apr 16:27:18 16:35:35 87° 69° (ENE) 16:43:56 29.400 - 29.500 MHz
Uosat F 24 Apr 16:36:21 16:41:18 59° 258° (WSW) 16:46:17 435.120 FM
ISS 24 Apr 16:42:36 16:45:51 44° 355° (N) 16:49:07 145.800 FM
Hamsat 24 Apr 17:17:28 17:20:25 19° 62° (ENE) 17:23:23 145.90 MHz
Saudisat 1A 24 Apr 17:18:13 17:22:03 27° 37° (NE) 17:25:50 436.775 MHz
JAS-1B 24 Apr 17:42:07 17:47:33 22° 268° (W) 17:52:27 435.800 - 435.900 CW/SSB
OPAL 24 Apr 17:45:01 17:48:59 22° 303° (WNW) 17:52:57 ?
SO-50 24 Apr 17:46:15 17:48:39 14° 340° (NNW) 17:51:05 436.795 FM
RS-15 24 Apr 17:51:26 17:58:39 21° 261° (W) 18:06:00 29.354 - 29.394 USB, Beacon 29.352 USB
UOSAT-12 24 Apr 17:53:07 17:57:37 55° 314° (NW) 18:02:15 437.025 FM, 437.400 FM
JAS-2 24 Apr 18:11:12 18:15:43 28° 63° (ENE) 18:20:04 435.800 - 435.900 CW/SSB, 435.910 FM
ISS 24 Apr 18:19:34 18:22:55 59° 15° (NNE) 18:26:16 145.800 FM
AO-7 24 Apr 18:23:09 18:29:24 23° 270° (W) 18:35:43 29.400 - 29.500 MHz
HO-68 24 Apr 18:40:08 18:42:27 12° 39° (NE) 18:44:46 435.675 MHz FM
Hamsat 24 Apr 18:51:54 18:56:02 53° 260° (W) 19:00:15 145.90 MHz
STRAND 1 24 Apr 18:53:32 18:57:17 20° 91° (E) 19:01:02 ?
Saudisat 1A 24 Apr 18:57:36 19:01:56 55° 237° (WSW) 19:06:12 436.775 MHz
SO-50 24 Apr 19:30:42 19:31:15 10° 5° (N) 19:31:49 436.795 FM
SO-67 24 Apr 19:34:22 19:37:51 87° 257° (WSW) 19:41:23 435.3500 MHz FM
UOSAT-12 24 Apr 19:35:50 19:38:48 16° 336° (NNW) 19:41:48 437.025 FM, 437.400 FM
JAS-2 24 Apr 19:55:25 20:00:42 46° 261° (W) 20:05:43 435.800 - 435.900 CW/SSB, 435.910 FM
ISS 24 Apr 19:56:24 19:59:34 38° 214° (SW) 20:02:44 145.800 FM
HO-68 24 Apr 20:21:45 20:28:23 44° 61° (ENE) 20:35:04 435.675 MHz FM
STRAND 1 24 Apr 20:31:52 20:36:54 60° 290° (WNW) 20:41:54 ?
Oscar 11 24 Apr 20:47:49 20:50:46 18° 61° (ENE) 20:53:44 145.825 FM, Beacon 2401.500 USB
MaSat-1 24 Apr 21:10:10 21:12:49 88° 121° (ESE) 21:15:19 437.345 MHz
SO-50 24 Apr 21:10:15 21:13:38 20° 29° (NNE) 21:17:03 436.795 FM
UOSAT-12 24 Apr 21:19:57 21:20:56 11° 1° (N) 21:21:55 437.025 FM, 437.400 FM
HO-68 24 Apr 22:09:19 22:16:05 45° 261° (W) 22:22:55 435.675 MHz FM
STRAND 1 24 Apr 22:13:54 22:15:05 11° 309° (NW) 22:16:16 ?
Oscar 11 24 Apr 22:22:20 22:26:34 56° 260° (W) 22:30:52 145.825 FM, Beacon 2401.500 USB
FUNcube-1 24 Apr 22:30:05 22:34:10 59° 73° (ENE) 22:38:17 145.950 - 145.970 MHz USB
SO-50 24 Apr 22:50:17 22:54:56 79° 50° (NE) 22:59:38 436.795 FM
UOSAT-12 24 Apr 22:59:50 23:03:01 18° 26° (NNE) 23:06:12 437.025 FM, 437.400 FM
PCSat 24 Apr 23:00:10 23:04:17 23° 108° (ESE) 23:08:24 145.825 MHz
Sapphire 24 Apr 23:57:35 00:02:53 58° 118° (ESE) 00:08:12 437.095 MHz 1200 baud AX-25 AFSK
FUNcube-1 25 Apr 00:08:40 00:11:01 15° 270° (W) 00:13:22 145.950 - 145.970 MHz USB
SO-50 25 Apr 00:32:03 00:34:58 17° 249° (WSW) 00:37:54 436.795 FM
UOSAT-12 25 Apr 00:39:25 00:44:07 61° 47° (NE) 00:48:46 437.025 FM, 437.400 FM
PCSat 25 Apr 00:41:50 00:47:13 67° 307° (NW) 00:52:39 145.825 MHz
KITSAT 1 25 Apr 00:44:40 00:49:31 17° 100° (E) 00:54:22 435.175 FM
Sapphire 25 Apr 01:41:51 01:46:38 31° 319° (NW) 01:51:28 437.095 MHz 1200 baud AX-25 AFSK
Oscar 19 25 Apr 01:45:47 01:49:30 19° 90° (E) 01:53:10 437.125 CW, 437.150 USB
OPAL 25 Apr 01:46:14 01:50:30 28° 59° (ENE) 01:54:50 ?
AO-27 25 Apr 01:48:14 01:48:56 10° 85° (E) 01:49:37 436.795 MHz FM
Oscar 16 25 Apr 01:54:49 01:59:03 25° 93° (E) 02:03:15 437.025 USB, Beacon 2401.1428
ITAMSAT 1 25 Apr 01:56:02 01:58:09 12° 86° (E) 02:00:16 435.822 SSB
UOSAT-12 25 Apr 02:20:16 02:23:54 22° 246° (WSW) 02:27:31 437.025 FM, 437.400 FM
PCSat 25 Apr 02:27:54 02:31:41 19° 330° (NNW) 02:35:29 145.825 MHz
KITSAT 1 25 Apr 02:35:28 02:43:33 74° 121° (ESE) 02:51:39 435.175 FM
AO-Echo 25 Apr 02:38:35 02:42:21 23° 92° (E) 02:46:03 ?
Uribyol 2 25 Apr 02:40:59 02:45:39 33° 96° (E) 02:50:17 436.500 FM
TMSAT-1 25 Apr 02:58:25 02:59:59 11° 85° (E) 03:01:33 436.925 FM
Oscar 19 25 Apr 03:24:08 03:29:19 66° 289° (WNW) 03:34:27 437.125 CW, 437.150 USB
AO-27 25 Apr 03:24:10 03:29:23 73° 103° (ESE) 03:34:33 436.795 MHz FM
OPAL 25 Apr 03:24:15 03:29:09 48° 258° (WSW) 03:34:09 ?
Sapphire 25 Apr 03:29:45 03:31:53 12° 344° (NNW) 03:34:02 437.095 MHz 1200 baud AX-25 AFSK
JAS-1B 25 Apr 03:31:33 03:33:50 12° 86° (E) 03:36:10 435.800 - 435.900 CW/SSB
ITAMSAT 1 25 Apr 03:33:14 03:38:27 84° 105° (ESE) 03:43:38 435.822 SSB
Oscar 16 25 Apr 03:33:38 03:38:41 52° 291° (WNW) 03:43:43 437.025 USB, Beacon 2401.1428
Gurwin Techsat 1B 25 Apr 03:51:25 03:56:30 44° 98° (E) 04:01:34 435.225 FM
AO-Echo 25 Apr 04:16:50 04:21:24 46° 291° (WNW) 04:25:52 ?
PCSat 25 Apr 04:17:09 04:17:27 10° 356° (N) 04:17:45 145.825 MHz
Uribyol 2 25 Apr 04:20:24 04:25:11 39° 294° (WNW) 04:29:58 436.500 FM
AO-7 25 Apr 04:25:42 04:32:01 23° 90° (E) 04:38:17 29.400 - 29.500 MHz
KITSAT 1 25 Apr 04:32:08 04:39:38 39° 325° (NW) 04:47:10 435.175 FM
TMSAT-1 25 Apr 04:35:30 04:40:49 76° 103° (ESE) 04:46:07 436.925 FM
Uosat F 25 Apr 04:40:37 04:45:07 32° 96° (E) 04:49:34 435.120 FM
AO-27 25 Apr 05:04:45 05:08:22 20° 302° (WNW) 05:11:59 436.795 MHz FM
Oscar 19 25 Apr 05:05:48 05:07:42 12° 308° (NW) 05:09:36 437.125 CW, 437.150 USB
ITAMSAT 1 25 Apr 05:14:03 05:17:18 17° 304° (NW) 05:20:34 435.822 SSB
Sapphire 25 Apr 05:16:35 05:17:57 11° 11° (N) 05:19:19 437.095 MHz 1200 baud AX-25 AFSK
JAS-1B 25 Apr 05:19:46 05:25:28 85° 105° (ESE) 05:31:31 435.800 - 435.900 CW/SSB
MaSat-1 25 Apr 05:29:05 05:31:58 50° 58° (ENE) 05:35:22 437.345 MHz
Gurwin Techsat 1B 25 Apr 05:31:44 05:36:19 30° 297° (WNW) 05:40:53 435.225 FM
PCSat 25 Apr 06:00:26 06:03:25 15° 23° (NNE) 06:06:24 145.825 MHz
RS-15 25 Apr 06:04:36 06:15:15 51° 114° (ESE) 06:25:36 29.354 - 29.394 USB, Beacon 29.352 USB
STRAND 1 25 Apr 06:12:41 06:17:28 42° 67° (ENE) 06:22:17 ?
TMSAT-1 25 Apr 06:16:32 06:20:10 19° 303° (WNW) 06:23:49 436.925 FM
AO-7 25 Apr 06:17:27 06:25:50 88° 291° (WNW) 06:34:11 29.400 - 29.500 MHz
Uosat F 25 Apr 06:19:22 06:23:57 37° 294° (WNW) 06:28:31 435.120 FM
KITSAT 1 25 Apr 06:31:32 06:37:36 22° 353° (N) 06:43:41 435.175 FM
Hamsat 25 Apr 06:34:39 06:38:04 22° 92° (E) 06:41:29 145.90 MHz
Sapphire 25 Apr 06:59:03 07:03:27 24° 36° (NE) 07:07:51 437.095 MHz 1200 baud AX-25 AFSK
JAS-2 25 Apr 06:59:55 07:03:38 18° 90° (E) 07:07:34 435.800 - 435.900 CW/SSB, 435.910 FM
MaSat-1 25 Apr 07:08:55 07:10:06 12° 250° (WSW) 07:11:20 437.345 MHz
JAS-1B 25 Apr 07:11:56 07:15:32 18° 306° (NW) 07:19:11 435.800 - 435.900 CW/SSB
PCSat 25 Apr 07:43:06 07:48:18 43° 47° (NE) 07:53:28 145.825 MHz
STRAND 1 25 Apr 07:52:24 07:56:49 29° 265° (W) 08:01:15 ?
Hamsat 25 Apr 08:10:06 08:14:15 43° 290° (WNW) 08:18:23 145.90 MHz
AO-7 25 Apr 08:11:10 08:17:39 27° 312° (NW) 08:24:09 29.400 - 29.500 MHz
RS-15 25 Apr 08:16:26 08:27:28 61° 319° (NW) 08:38:19 29.354 - 29.394 USB, Beacon 29.352 USB
SO-67 25 Apr 08:28:27 08:31:57 70° 101° (ESE) 08:35:26 435.3500 MHz FM
KITSAT 1 25 Apr 08:29:18 08:36:04 28° 23° (NNE) 08:42:49 435.175 FM
Sapphire 25 Apr 08:42:05 08:47:33 83° 238° (WSW) 08:52:57 437.095 MHz 1200 baud AX-25 AFSK
JAS-2 25 Apr 08:43:46 08:49:16 78° 287° (WNW) 08:55:22 435.800 - 435.900 CW/SSB, 435.910 FM
Saudisat 1A 25 Apr 09:08:57 09:11:45 16° 111° (ESE) 09:14:32 436.775 MHz
PCSat 25 Apr 09:26:43 09:31:41 37° 247° (WSW) 09:36:36 145.825 MHz
HO-68 25 Apr 09:32:48 09:39:03 31° 94° (E) 09:45:16 435.675 MHz FM
SO-67 25 Apr 10:03:48 10:04:35 11° 299° (WNW) 10:05:22 435.3500 MHz FM
Oscar 11 25 Apr 10:07:03 10:10:21 21° 92° (E) 10:13:38 145.825 FM, Beacon 2401.500 USB
KITSAT 1 25 Apr 10:24:58 10:33:05 67° 49° (NE) 10:41:07 435.175 FM
Sapphire 25 Apr 10:27:26 10:30:07 14° 257° (WSW) 10:32:48 437.095 MHz 1200 baud AX-25 AFSK
JAS-2 25 Apr 10:30:47 10:33:40 15° 305° (NW) 10:36:40 435.800 - 435.900 CW/SSB, 435.910 FM
RS-15 25 Apr 10:32:44 10:42:29 34° 350° (N) 10:52:12 29.354 - 29.394 USB, Beacon 29.352 USB
Saudisat 1A 25 Apr 10:46:21 10:50:50 75° 310° (NW) 10:55:19 436.775 MHz
HO-68 25 Apr 11:20:07 11:27:11 62° 294° (WNW) 11:34:14 435.675 MHz FM
Oscar 11 25 Apr 11:42:36 11:46:47 46° 290° (WNW) 11:50:57 145.825 FM, Beacon 2401.500 USB
FUNcube-1 25 Apr 11:51:44 11:56:03 80° 103° (ESE) 12:00:28 145.950 - 145.970 MHz USB
KITSAT 1 25 Apr 12:20:55 12:28:01 35° 251° (WSW) 12:35:05 435.175 FM
Uribyol 2 25 Apr 12:26:48 12:28:54 13° 52° (NE) 12:31:01 436.500 FM
Saudisat 1A 25 Apr 12:28:03 12:31:11 18° 331° (NNW) 12:34:19 436.775 MHz
ISS 25 Apr 12:43:23 12:44:06 11° 133° (SE) 12:44:49 145.800 FM
RS-15 25 Apr 12:48:14 12:58:26 41° 25° (NNE) 13:08:41 29.354 - 29.394 USB, Beacon 29.352 USB
Oscar 19 25 Apr 13:05:52 13:10:38 39° 66° (ENE) 13:15:26 437.125 CW, 437.150 USB
AO-27 25 Apr 13:07:57 13:12:07 25° 61° (ENE) 13:16:17 436.795 MHz FM
HO-68 25 Apr 13:09:27 13:13:33 17° 315° (NW) 13:17:40 435.675 MHz FM
Oscar 16 25 Apr 13:15:07 13:20:04 50° 69° (ENE) 13:25:04 437.025 USB, Beacon 2401.1428
ITAMSAT 1 25 Apr 13:16:36 13:20:59 29° 62° (ENE) 13:25:22 435.822 SSB
FUNcube-1 25 Apr 13:29:47 13:31:56 14° 301° (WNW) 13:34:06 145.950 - 145.970 MHz USB
Gurwin Techsat 1B 25 Apr 13:38:48 13:42:09 17° 56° (NE) 13:45:31 435.225 FM
AO-7 25 Apr 13:41:21 13:45:16 14° 34° (NE) 13:49:11 29.400 - 29.500 MHz
AO-Echo 25 Apr 13:54:29 13:59:22 46° 69° (ENE) 14:04:08 ?
Uribyol 2 25 Apr 14:02:21 14:07:29 70° 72° (ENE) 14:12:38 436.500 FM
ISS 25 Apr 14:16:56 14:20:12 56° 151° (SSE) 14:23:30 145.800 FM
JAS-1B 25 Apr 14:20:14 14:25:16 22° 57° (ENE) 14:29:50 435.800 - 435.900 CW/SSB
TMSAT-1 25 Apr 14:21:23 14:25:45 27° 62° (ENE) 14:30:07 436.925 FM
Uosat F 25 Apr 14:22:47 14:24:22 11° 52° (NE) 14:25:57 435.120 FM
Oscar 19 25 Apr 14:45:28 14:50:03 32° 265° (W) 14:54:41 437.125 CW, 437.150 USB
AO-27 25 Apr 14:46:16 14:51:20 54° 260° (W) 14:56:25 436.795 MHz FM
SO-50 25 Apr 14:48:48 14:53:15 70° 125° (SE) 14:57:46 436.795 FM
ITAMSAT 1 25 Apr 14:55:20 15:00:18 46° 261° (W) 15:05:17 435.822 SSB
Oscar 16 25 Apr 14:55:29 14:59:41 25° 267° (W) 15:03:57 437.025 USB, Beacon 2401.1428
RS-15 25 Apr 15:01:14 15:12:14 90° 53° (NE) 15:23:28 29.354 - 29.394 USB, Beacon 29.352 USB
Gurwin Techsat 1B 25 Apr 15:16:08 15:21:27 86° 255° (WSW) 15:26:48 435.225 FM
AO-7 25 Apr 15:28:19 15:36:01 45° 58° (ENE) 15:43:45 29.400 - 29.500 MHz
OPAL 25 Apr 15:30:30 15:35:12 33° 98° (E) 15:39:53 ?
AO-Echo 25 Apr 15:34:02 15:38:20 26° 266° (W) 15:42:33 ?
Uribyol 2 25 Apr 15:44:02 15:47:29 18° 270° (W) 15:50:58 436.500 FM
Saudisat 1A 25 Apr 15:51:58 15:54:11 13° 20° (NNE) 15:56:22 436.775 MHz
ISS 25 Apr 15:53:43 15:56:59 49° 350° (N) 16:00:17 145.800 FM
Uosat F 25 Apr 15:57:16 16:02:14 65° 71° (ENE) 16:07:13 435.120 FM
TMSAT-1 25 Apr 16:00:16 16:05:24 51° 260° (W) 16:10:35 436.925 FM
JAS-1B 25 Apr 16:07:59 16:15:27 82° 255° (WSW) 16:21:45 435.800 - 435.900 CW/SSB
